Location: Angwan Shehu
(11.2514°N, 7.4613°E)
Time: 22:57:09
(UTC+00:00)

SR - Pass Details

Date: 15 April 2021
Orbit: 573 x 882 km, 66.7° (Epoch: 11 May)

Event Time Altitude Azimuth Distance (km) Brightness Sun altitude
Rises 17:47:29 0° 346° (NNW) 3,342 ? -2.2°
Reaches altitude 10° 17:50:04 10° 350° (N) 2,367 ? -2.9°
Maximum altitude 17:55:23 57° 68° (ENE) 881 ? -4.1°
Drops below altitude 10° 18:00:15 10° 147° (SSE) 2,166 ? -5.3°
Sets 18:02:31 0° 151° (SSE) 3,034 ? -5.9°
